Weather History for KCNI - October, 2011

Change the Weather History Date:

Friday, October 14, 2011

  Actual Average (KGVL) Record (KGVL)
Temperature  
Mean Temperature 61 °F 62 °F  
Max Temperature 71 °F 72 °F 88 °F (1954)
Min Temperature 51 °F 52 °F 33 °F (1988)
Degree Days  
Heating Degree Days 4 4  
Month to date heating degree days 41  
Since 1 July heating degree days 54  
Cooling Degree Days 0 1  
Month to date cooling degree days 27  
Year to date cooling degree days 1568  
Growing Degree Days 11 (Base 50)    
Moisture  
Dew Point 51 °F    
Average Humidity 73    
Maximum Humidity 100    
Minimum Humidity 38    
Precipitation  
Precipitation 0.00 in 0.12 in 2.49 in (2014)
Month to date precipitation 2.11  
Year to date precipitation 43.04  
Sea Level Pressure  
Sea Level Pressure 29.86 in    
Wind  
Wind Speed 5 mph ()    
Max Wind Speed 13 mph    
Max Gust Speed 22 mph    
Visibility 7.2 miles    
Events Fog    
T = Trace of Precipitation, MM = Missing Value Source: Averaged Metar Reports

Daily Weather History Graph

Daily Weather History Graph

Search for Another Location

Airport or City:

Trip Planner

Search our weather history database for the weather conditions in past years. The results will help you decide how hot, cold, wet, or windy it might be!

Date:

Astronomy

Oct. 14, 2011 Rise Set
Actual Time 7:42 AM EDT 7:04 PM EDT
Civil Twilight 7:16 AM EDT 7:30 PM EDT
Nautical Twilight 6:47 AM EDT 7:59 PM EDT
Astronomical Twilight 6:18 AM EDT 8:28 PM EDT
Moon 8:27 PM EDT (10/14) 10:00 AM EDT (10/14)
Length of Visible Light 12h 13m
Length of Day
11h 22m
Waning Gibbous, 94% of the Moon is Illuminated
Oct 14
Waning Gibbous
Oct 19
Last Quarter
Oct 26
New
Nov 2
First Quarter
Nov 10
Full

Hourly Weather History & Observations

Time (EDT) Temp. Dew Point Humidity Pressure Visibility Wind Dir Wind Speed Gust Speed Precip Events Conditions
12:15 AM 59.0 °F 59.0 °F 100% 29.75 in 5.0 mi WNW 4.6 mph - N/A   Mist
12:35 AM 59.0 °F 59.0 °F 100% 29.75 in 4.0 mi West 3.5 mph - N/A   Clear
12:55 AM 57.2 °F 57.2 °F 100% 29.75 in 3.0 mi WNW 5.8 mph - N/A   Clear
1:35 AM 57.2 °F 57.2 °F 100% 29.75 in 2.0 mi WNW 6.9 mph - N/A   Clear
1:55 AM 55.4 °F 55.4 °F 100% 29.76 in 2.5 mi WNW 5.8 mph - N/A   Clear
2:15 AM 55.4 °F 55.4 °F 100% 29.76 in 2.5 mi NW 4.6 mph - N/A   Clear
2:35 AM 55.4 °F 55.4 °F 100% 29.76 in 2.0 mi NW 5.8 mph - N/A   Clear
2:55 AM 55.4 °F 55.4 °F 100% 29.77 in 1.8 mi WNW 4.6 mph - N/A   Mist
3:15 AM 55.4 °F 55.4 °F 100% 29.77 in 1.8 mi WNW 4.6 mph - N/A   Mist
3:35 AM 55.4 °F 55.4 °F 100% 29.77 in 2.0 mi WNW 5.8 mph - N/A   Clear
3:55 AM 55.4 °F 55.4 °F 100% 29.77 in 1.8 mi WNW 4.6 mph - N/A   Mist
4:15 AM 55.4 °F 55.4 °F 100% 29.77 in 1.5 mi WNW 3.5 mph - N/A   Mist
4:35 AM 55.4 °F 55.4 °F 100% 29.77 in 4.0 mi WNW 4.6 mph - N/A   Clear
4:55 AM 55.4 °F 55.4 °F 100% 29.78 in 3.0 mi WNW 4.6 mph - N/A   Clear
5:15 AM 53.6 °F 53.6 °F 100% 29.79 in 2.5 mi WNW 4.6 mph - N/A   Clear
5:35 AM 53.6 °F 53.6 °F 100% 29.79 in 3.0 mi WNW 4.6 mph - N/A   Clear
5:55 AM 53.6 °F 53.6 °F 100% 29.80 in 2.5 mi WNW 3.5 mph - N/A   Clear
6:15 AM 53.6 °F 53.6 °F 100% 29.80 in 1.2 mi NW 4.6 mph - N/A   Mist
6:35 AM 53.6 °F 53.6 °F 100% 29.80 in 2.0 mi WNW 3.5 mph - N/A   Clear
6:55 AM 53.6 °F 53.6 °F 100% 29.82 in 1.5 mi WNW 3.5 mph - N/A   Mist
7:15 AM 53.6 °F 53.6 °F 100% 29.83 in 1.2 mi WNW 3.5 mph - N/A   Mist
7:35 AM 53.6 °F 53.6 °F 100% 29.84 in 2.0 mi WNW 3.5 mph - N/A   Clear
7:55 AM 51.8 °F 51.8 °F 100% 29.84 in 0.8 mi WNW 3.5 mph - N/A   Mist
8:15 AM 51.8 °F 51.8 °F 100% 29.85 in 0.5 mi WNW 3.5 mph - N/A Fog Fog
8:35 AM 53.6 °F 53.6 °F 100% 29.86 in 0.8 mi WNW 3.5 mph - N/A   Mist
9:15 AM 55.4 °F 55.4 °F 100% 29.87 in 7.0 mi West 3.5 mph - N/A   Clear
9:35 AM 55.4 °F 55.4 °F 100% 29.88 in 10.0 mi West 4.6 mph - N/A   Clear
9:55 AM 59.0 °F 59.0 °F 100% 29.89 in 10.0 mi NW 3.5 mph - N/A   Clear
10:15 AM 59.0 °F 59.0 °F 100% 29.89 in 10.0 mi WNW 3.5 mph - N/A   Clear
10:35 AM 60.8 °F 57.2 °F 88% 29.90 in 10.0 mi WNW 5.8 mph - N/A   Clear
10:55 AM 60.8 °F 57.2 °F 88% 29.90 in 10.0 mi WNW 3.5 mph - N/A   Clear
11:15 AM 62.6 °F 57.2 °F 82% 29.91 in 10.0 mi West 4.6 mph - N/A   Clear
11:35 AM 64.4 °F 55.4 °F 73% 29.92 in 10.0 mi West 4.6 mph - N/A   Clear
11:55 AM 64.4 °F 55.4 °F 73% 29.92 in 10.0 mi Calm Calm - N/A   Clear
12:15 PM 68.0 °F 53.6 °F 60% 29.92 in 10.0 mi WNW 3.5 mph - N/A   Clear
12:35 PM 68.0 °F 53.6 °F 60% 29.92 in 10.0 mi WNW 8.1 mph - N/A   Clear
12:55 PM 68.0 °F 53.6 °F 60% 29.92 in 10.0 mi WNW 8.1 mph 16.1 mph N/A   Clear
1:15 PM 69.8 °F 51.8 °F 53% 29.91 in 10.0 mi WNW 6.9 mph - N/A   Clear
1:35 PM 69.8 °F 50.0 °F 49% 29.90 in 10.0 mi WNW 11.5 mph 18.4 mph N/A   Clear
1:55 PM 71.6 °F 50.0 °F 46% 29.90 in 10.0 mi WNW 10.4 mph 18.4 mph N/A   Clear
2:15 PM 71.6 °F 50.0 °F 46% 29.90 in 10.0 mi West 5.8 mph - N/A   Clear
2:35 PM 71.6 °F 48.2 °F 43% 29.89 in 10.0 mi NW 12.7 mph 21.9 mph N/A   Clear
2:55 PM 71.6 °F 48.2 °F 43% 29.89 in 10.0 mi WNW 5.8 mph - N/A   Clear
3:15 PM 71.6 °F 44.6 °F 38% 29.88 in 10.0 mi WNW 11.5 mph 18.4 mph N/A   Clear
3:35 PM 71.6 °F 46.4 °F 41% 29.88 in 10.0 mi WNW 5.8 mph 17.3 mph N/A   Clear
3:55 PM 71.6 °F 46.4 °F 41% 29.88 in 10.0 mi NW 10.4 mph 17.3 mph N/A   Clear
4:15 PM 71.6 °F 44.6 °F 38% 29.87 in 10.0 mi NW 9.2 mph 20.7 mph N/A   Clear
4:35 PM 71.6 °F 46.4 °F 41% 29.87 in 10.0 mi NW 6.9 mph - N/A   Clear
4:55 PM 71.6 °F 46.4 °F 41% 29.87 in 10.0 mi NW 6.9 mph 21.9 mph N/A   Clear
5:15 PM 71.6 °F 46.4 °F 41% 29.87 in 10.0 mi West 9.2 mph - N/A   Clear
5:35 PM 69.8 °F 48.2 °F 46% 29.88 in 10.0 mi West 4.6 mph - N/A   Clear
5:55 PM 69.8 °F 48.2 °F 46% 29.88 in 10.0 mi West 4.6 mph - N/A   Clear
6:15 PM 69.8 °F 50.0 °F 49% 29.88 in 10.0 mi West 5.8 mph - N/A   Clear
6:35 PM 68.0 °F 48.2 °F 49% 29.88 in 10.0 mi WNW 3.5 mph - N/A   Clear
6:55 PM 68.0 °F 46.4 °F 46% 29.89 in 10.0 mi Calm Calm - N/A   Clear
7:15 PM 66.2 °F 48.2 °F 52% 29.89 in 10.0 mi West 3.5 mph - N/A   Clear
7:35 PM 66.2 °F 48.2 °F 52% 29.90 in 10.0 mi West 3.5 mph - N/A   Clear
7:55 PM 64.4 °F 48.2 °F 56% 29.91 in 10.0 mi West 3.5 mph - N/A   Clear
8:15 PM 64.4 °F 48.2 °F 56% 29.92 in 10.0 mi Calm Calm - N/A   Clear
8:35 PM 62.6 °F 46.4 °F 55% 29.92 in 10.0 mi West 3.5 mph - N/A   Clear
8:55 PM 62.6 °F 46.4 °F 55% 29.93 in 10.0 mi Calm Calm - N/A   Clear
9:15 PM 62.6 °F 46.4 °F 55% 29.93 in 10.0 mi Calm Calm - N/A   Clear
9:35 PM 62.6 °F 46.4 °F 55% 29.94 in 10.0 mi West 3.5 mph - N/A   Clear
9:55 PM 62.6 °F 46.4 °F 55% 29.94 in 10.0 mi West 3.5 mph - N/A   Clear
10:15 PM 62.6 °F 46.4 °F 55% 29.94 in 10.0 mi West 3.5 mph - N/A   Clear
10:35 PM 62.6 °F 46.4 °F 55% 29.94 in 10.0 mi West 4.6 mph - N/A   Clear
10:55 PM 62.6 °F 44.6 °F 52% 29.95 in 10.0 mi West 3.5 mph - N/A   Clear
11:15 PM 62.6 °F 44.6 °F 52% 29.96 in 10.0 mi West 3.5 mph - N/A   Clear
11:35 PM 62.6 °F 44.6 °F 52% 29.96 in 10.0 mi West 3.5 mph - N/A   Clear
11:55 PM 60.8 °F 46.4 °F 59% 29.97 in 10.0 mi Calm Calm - N/A   Clear